Location: *
(28.3744°N, 81.5492°W)
Time: 03:14:40
(UTC+00:00)

Cosmos 2333 Rocket - Pass Details

Date: 15 June 2025
Orbit: 841 x 861 km, 70.8° (Epoch: 11 July)

Event Time Altitude Azimuth Distance (km) Brightness Sun altitude
Rises 01:25:14 0° 324° (NW) 3,402 6.9 -12.2°
Reaches altitude 10° 01:28:05 10° 311° (NW) 2,461 6.1 -12.7°
Maximum altitude 01:32:33 25° 258° (WSW) 1,652 4.2 -13.5°
Drops below altitude 10° 01:37:00 10° 205° (SSW) 2,447 4.5 -14.3°
Sets 01:39:51 0° 192° (SSW) 3,378 5.1 -14.8°
